Back to catalog

STARLINK-32087

AliveCommunicationsVLEO
NORAD 59702·PAYLOAD·🇺🇸 United States

Launched May 8, 2024 from Cape Canaveral Space Force Station

Loading…

Next Passes (next 24 hours)

TLE

FreshSource: CelesTrak SupGP

Epoch: Sep 14, 2026, 14:52 UTC

1 59702C 24086W   26257.61993056 -.00025104  00000+0 -90943-3 0  2572
2 59702  43.0014  72.8373 0001397 258.8620 240.7022 15.27585387    17

Track STARLINK-32087 in real time with AllMySat

Download on the App Store